TimeCST,TemperatureF,Dew PointF,Humidity,Sea Level PressureIn,VisibilityMPH,Wind Direction,Wind SpeedMPH,Gust SpeedMPH,PrecipitationIn,Events,Conditions,WindDirDegrees,DateUTC
12:52 AM,14.0,10.0,84,30.43,6.0,Calm,Calm,-,N/A,,Clear,0,2013-01-04 06:52:00
1:52 AM,12.9,10.9,92,30.43,6.0,Calm,Calm,-,N/A,,Clear,0,2013-01-04 07:52:00
2:52 AM,12.0,9.0,88,30.44,7.0,Calm,Calm,-,N/A,,Clear,0,2013-01-04 08:52:00
2:59 AM,12.2,8.6,85,30.40,6.0,ESE,3.5,-,N/A,,Partly Cloudy,110,2013-01-04 08:59:00
3:52 AM,14.0,10.9,88,30.42,4.0,Calm,Calm,-,N/A,,Clear,0,2013-01-04 09:52:00
4:52 AM,12.0,9.0,88,30.40,5.0,ESE,3.5,-,N/A,,Clear,110,2013-01-04 10:52:00
5:52 AM,15.1,12.0,88,30.40,5.0,East,3.5,-,N/A,,Clear,100,2013-01-04 11:52:00
6:52 AM,12.0,8.1,84,30.41,6.0,ESE,3.5,-,N/A,,Clear,120,2013-01-04 12:52:00
7:52 AM,14.0,10.9,88,30.40,4.0,ESE,4.6,-,N/A,,Clear,120,2013-01-04 13:52:00
8:52 AM,21.0,18.0,88,30.41,5.0,Calm,Calm,-,N/A,,Clear,0,2013-01-04 14:52:00
9:52 AM,30.9,24.1,76,30.40,10.0,SSW,6.9,-,N/A,,Clear,210,2013-01-04 15:52:00
10:52 AM,34.0,23.0,64,30.40,10.0,WSW,16.1,-,N/A,,Clear,240,2013-01-04 16:52:00
11:52 AM,37.0,24.1,59,30.38,10.0,SW,11.5,-,N/A,,Clear,230,2013-01-04 17:52:00
12:52 PM,39.9,25.0,55,30.35,10.0,SW,11.5,-,N/A,,Clear,230,2013-01-04 18:52:00
1:52 PM,41.0,26.1,55,30.32,10.0,SSW,11.5,-,N/A,,Clear,210,2013-01-04 19:52:00
2:52 PM,42.1,26.1,53,30.31,10.0,SSW,10.4,-,N/A,,Clear,210,2013-01-04 20:52:00
3:52 PM,43.0,27.0,53,30.30,10.0,SSW,9.2,-,N/A,,Clear,200,2013-01-04 21:52:00
4:52 PM,39.0,27.0,62,30.30,10.0,SSE,6.9,-,N/A,,Clear,150,2013-01-04 22:52:00
5:52 PM,32.0,26.1,79,30.30,10.0,SE,5.8,-,N/A,,Clear,130,2013-01-04 23:52:00
6:52 PM,30.9,25.0,79,30.30,10.0,East,3.5,-,N/A,,Clear,100,2013-01-05 00:52:00
7:52 PM,30.0,25.0,82,30.29,10.0,SE,3.5,-,N/A,,Clear,140,2013-01-05 01:52:00
8:52 PM,28.9,24.1,82,30.28,10.0,SSE,4.6,-,N/A,,Clear,150,2013-01-05 02:52:00
9:52 PM,28.0,23.0,81,30.26,10.0,SE,4.6,-,N/A,,Clear,140,2013-01-05 03:52:00
10:52 PM,30.9,23.0,72,30.26,10.0,SSE,4.6,-,N/A,,Clear,150,2013-01-05 04:52:00
11:52 PM,32.0,23.0,69,30.25,10.0,Calm,Calm,-,N/A,,Clear,0,2013-01-05 05:52:00